HELLAS-SAT 2

Last updated on Tue Sep 22 2026 00:03:10 GMT+0000 (Coordinated Universal Time)

1 27811U 03020A 26264.27326972 -.00000083 00000+0 00000+0 0 9992 2 27811 7.5866 66.6952 0008032 142.8080 239.0877 1.00272863 43814
UTC large
Height (km)
Speed (km/s)
/
Latitude / Longitude
Inclination (degrees)
Orbital Period (minutes)
Azimuth
Elevation
Range (km)
Doppler Factor

Next 0 passes for location: London (51.5072 / 0.1276)

No passes found over London.
HELLAS-SAT 2